Simultaneous Nadir Overpasses (SNOs) Predictions

Prediction of SNOs between NOAA-19 and TERRA Satellite Orbit:

Table of predicted SNOs for the next 14.0 days since TLE Epoch: 11/15/2016
Index Date (NOAA-19) Time (NOAA-19) Lat,Lon (NOAA-19) SZA (NOAA-19 ) Date (TERRA) Time (TERRA) Lat,Lon (TERRA) SZA (TERRA ) Distance(km) Time Diff (sec)
1 11/15/2016 15:03:34 -74.56, 142.70 86.50 11/15/2016 15:04:21 -74.54, 142.77 86.50 3.04 47
2 11/15/2016 15:54:39 74.46, -49.80 93.44 11/15/2016 15:53:48 74.47, -49.76 93.43 1.26 51
3 11/17/2016 20:37:37 74.54,-120.70 94.03 11/17/2016 20:38:05 74.54,-120.66 94.04 1.19 28
4 11/17/2016 21:28:30 -74.45, 46.83 86.04 11/17/2016 21:27:34 -74.47, 46.80 86.04 2.57 56
5 11/20/2016 02:11:28 -74.52, -24.05 85.48 11/20/2016 02:11:51 -74.55, -24.09 85.45 3.21 23
6 11/20/2016 03:02:32 74.40, 143.52 94.43 11/20/2016 03:01:19 74.42, 143.24 94.42 8.63 73
7 11/22/2016 07:45:31 74.54, 72.45 95.02 11/22/2016 07:45:35 74.55, 72.47 95.03 1.33 4
8 11/22/2016 08:36:19 -74.18,-119.29 85.28 11/22/2016 08:35:08 -74.27,-120.54 85.27 39.43 71
9 11/24/2016 12:28:38 75.05, 0.25 95.90 11/24/2016 12:29:46 74.93, 2.36 95.90 62.28 68
10 11/24/2016 13:19:23 -74.54, 169.04 84.53 11/24/2016 13:19:21 -74.56, 169.06 84.51 2.35 2
11 11/26/2016 18:02:25 -74.81, 97.59 83.89 11/26/2016 18:03:37 -74.69, 98.31 83.96 24.72 72
12 11/26/2016 18:53:25 74.55, -94.45 95.90 11/26/2016 18:53:05 74.56, -94.38 95.90 2.31 20
13 11/28/2016 23:36:22 74.61,-165.30
